Date String (YYYY-MM-DD hh:mm:ss) UTC,Instrument flags,Ambient pressure (hPa),Sample flow (lpm),Bypass flow (lpm),Sample temperature (°C),Ambient temperature (°C),ASC tube jacket temperature (°C),LED temperature (°C),Box temperature (°C),Sample RH (%),Span deviation,Mass concentration (μg/m³),Mass concentration (μg/m³),Mass concentration (μg/m³)
DateTimeUTC,F1_M11,P_M11,Q1_M11,Q2_M11,T1_M11,T2_M11,T3_M11,T4_M11,T5_M11,U1_M11,ZSPAN_M11,X0_M11,X2_M11,X1_M11
2022-12-11 19:00:00,,0818.9,4.98,0.00,26.1,25.1,00.0,34.8,28.0,09.0,0000.0,0013.15,0006.83,0006.07
2022-12-11 19:01:00,,0818.9,5.01,0.00,26.1,25.1,00.0,34.8,28.0,08.9,0000.0,0013.61,0006.84,0006.04
2022-12-11 19:02:00,,0818.9,5.01,0.00,26.1,25.1,00.0,34.8,28.0,08.9,0000.0,0013.97,0006.85,0006.04
2022-12-11 19:03:00,,0818.9,4.99,0.00,26.1,25.1,00.0,34.8,28.1,09.0,0000.0,0014.08,0006.88,0006.06
2022-12-11 19:04:00,,0818.9,4.99,0.00,26.2,25.1,00.0,34.8,28.1,08.9,0000.0,0014.18,0006.93,0006.08
2022-12-11 19:05:00,,0818.9,4.99,0.00,26.2,25.1,00.0,34.8,28.1,08.9,0000.0,0015.12,0006.97,0006.08
2022-12-11 19:06:00,,0818.8,5.00,0.00,26.2,25.1,00.0,34.9,28.1,09.1,0000.0,0015.70,0006.97,0006.10
2022-12-11 19:07:00,,0818.8,5.01,0.00,26.2,25.2,00.0,34.9,28.1,08.9,0000.0,0015.45,0006.99,0006.12
2022-12-11 19:08:00,,0818.7,5.02,0.00,26.2,25.2,00.0,34.9,28.1,09.1,0000.0,0015.87,0007.03,0006.19
2022-12-11 19:09:00,,0818.7,5.00,0.00,26.2,25.2,00.0,34.9,28.2,08.9,0000.0,0015.88,0007.08,0006.27
2022-12-11 19:10:00,,0818.8,5.00,0.00,26.3,25.2,00.0,34.9,28.1,09.0,0000.0,0016.30,0007.15,0006.35
2022-12-11 19:11:00,,0818.7,4.99,0.00,26.3,25.2,00.0,34.9,28.2,08.9,0000.0,0016.31,0007.23,0006.42
2022-12-11 19:12:00,,0818.7,4.99,0.00,26.3,25.2,00.0,35.0,28.2,08.8,0000.0,0016.22,0007.22,0006.46
2022-12-11 19:13:00,,0818.7,5.01,0.00,26.3,25.2,00.0,35.0,28.2,08.9,0000.0,0016.61,0007.24,0006.49
2022-12-11 19:14:00,,0818.6,5.01,0.00,26.3,25.3,00.0,35.0,28.2,08.9,0000.0,0016.55,0007.31,0006.52
2022-12-11 19:15:00,,0818.6,5.01,0.00,26.3,25.3,00.0,35.0,28.2,09.0,0000.0,0016.96,0007.35,0006.53
2022-12-11 19:16:00,,0818.6,5.02,0.00,26.4,25.3,00.0,35.0,28.3,08.7,0000.0,0016.53,0007.33,0006.55
2022-12-11 19:17:00,,0818.6,5.00,0.00,26.4,25.3,00.0,35.1,28.3,08.5,0000.0,0015.82,0007.31,0006.51
2022-12-11 19:18:00,,0818.6,5.00,0.00,26.4,25.4,00.0,35.1,28.3,08.3,0000.0,0016.24,0007.25,0006.44
2022-12-11 19:19:00,,0818.5,4.99,0.00,26.4,25.4,00.0,35.1,28.3,08.1,0000.0,0016.14,0007.18,0006.34
2022-12-11 19:20:00,,0818.4,4.99,0.00,26.5,25.4,00.0,35.1,28.4,08.2,0000.0,0014.98,0007.06,0006.21
2022-12-11 19:21:00,,0818.4,5.00,0.00,26.5,25.5,00.0,35.1,28.4,08.2,0000.0,0014.47,0006.92,0006.08
2022-12-11 19:22:00,,0818.4,5.00,0.00,26.5,25.5,00.0,35.2,28.4,07.9,0000.0,0014.23,0006.77,0005.92
2022-12-11 19:23:00,,0818.4,5.01,0.00,26.5,25.6,00.0,35.2,28.5,07.7,0000.0,0014.42,0006.58,0005.75
2022-12-11 19:24:00,,0818.4,5.01,0.00,26.6,25.6,00.0,35.2,28.5,07.9,0000.0,0013.53,0006.39,0005.59
2022-12-11 19:25:00,,0818.4,5.01,0.00,26.6,25.6,00.0,35.2,28.5,08.2,0000.0,0013.09,0006.29,0005.49
2022-12-11 19:26:00,,0818.4,4.99,0.00,26.6,25.6,00.0,35.3,28.5,07.9,0000.0,0012.52,0006.14,0005.36
2022-12-11 19:27:00,,0818.4,4.99,0.00,26.6,25.6,00.0,35.3,28.6,07.9,0000.0,0012.41,0005.99,0005.24
2022-12-11 19:28:00,,0818.4,4.99,0.00,26.6,25.7,00.0,35.3,28.6,08.2,0000.0,0011.91,0005.92,0005.20
2022-12-11 19:29:00,,0818.3,5.00,0.00,26.7,25.7,00.0,35.3,28.6,08.1,0000.0,0011.66,0005.88,0005.18
2022-12-11 19:30:00,,0818.2,5.02,0.00,26.7,25.7,00.0,35.3,28.6,08.0,0000.0,0011.45,0005.86,0005.16
2022-12-11 19:31:00,,0818.2,5.00,0.00,26.7,25.7,00.0,35.4,28.6,07.8,0000.0,0011.42,0005.84,0005.14
2022-12-11 19:32:00,,0818.2,4.99,0.00,26.7,25.7,00.0,35.4,28.6,07.6,0000.0,0012.70,0005.77,0005.09
2022-12-11 19:33:00,,0818.1,5.00,0.00,26.7,25.7,00.0,35.4,28.6,07.8,0000.0,0013.36,0005.68,0005.06
2022-12-11 19:34:00,,0818.2,5.00,0.00,26.8,25.8,00.0,35.4,28.7,07.5,0000.0,0012.79,0005.67,0005.05
2022-12-11 19:35:00,,0818.2,5.01,0.00,26.8,25.8,00.0,35.4,28.7,06.6,0000.0,0012.92,0005.56,0004.94
2022-12-11 19:36:00,,0818.2,5.00,0.00,26.8,25.8,00.0,35.5,28.7,07.0,0000.0,0012.55,0005.32,0004.76
2022-12-11 19:37:00,,0818.2,5.00,0.00,26.8,25.8,00.0,35.5,28.8,07.5,0000.0,0012.54,0005.21,0004.67
2022-12-11 19:38:00,,0818.2,5.00,0.00,26.9,25.9,00.0,35.5,28.8,07.6,0000.0,0013.00,0005.16,0004.63
2022-12-11 19:39:00,,0818.1,5.00,0.00,26.9,25.9,00.0,35.5,28.8,07.5,0000.0,0013.23,0005.08,0004.56
2022-12-11 19:40:00,,0818.1,5.00,0.00,26.9,25.9,00.0,35.6,28.8,07.5,0000.0,0013.45,0004.99,0004.48
2022-12-11 19:41:00,,0818.2,5.00,0.00,26.9,25.9,00.0,35.6,28.8,07.4,0000.0,0013.16,0004.87,0004.40
2022-12-11 19:42:00,,0818.1,5.00,0.00,26.9,25.9,00.0,35.6,28.8,07.1,0000.0,0013.07,0004.77,0004.31
2022-12-11 19:43:00,,0818.1,5.00,0.00,27.0,25.9,00.0,35.6,28.8,06.9,0000.0,0011.84,0004.69,0004.22
2022-12-11 19:44:00,,0818.1,5.00,0.00,27.0,26.0,00.0,35.6,28.9,06.5,0000.0,0010.61,0004.59,0004.12
2022-12-11 19:45:00,,0818.2,5.00,0.00,27.0,26.0,00.0,35.7,28.9,06.0,0000.0,0010.51,0004.42,0003.96
2022-12-11 19:46:00,,0818.2,5.00,0.00,27.0,26.0,00.0,35.7,28.9,06.2,0000.0,0009.97,0004.37,0003.90
2022-12-11 19:47:00,,0818.1,5.01,0.00,27.0,26.0,00.0,35.7,29.0,06.3,0000.0,0010.05,0004.35,0003.88
2022-12-11 19:48:00,,0818.1,4.99,0.00,27.1,26.0,00.0,35.7,29.0,06.1,0000.0,0009.61,0004.17,0003.74
2022-12-11 19:49:00,,0818.0,4.99,0.00,27.1,26.1,00.0,35.7,29.0,06.1,0000.0,0008.90,0004.01,0003.57
2022-12-11 19:50:00,,0818.0,5.00,0.00,27.1,26.1,00.0,35.8,29.0,06.8,0000.0,0008.36,0003.91,0003.46
2022-12-11 19:51:00,,0818.0,5.01,0.00,27.1,26.1,00.0,35.8,29.0,06.8,0000.0,0007.79,0003.87,0003.41
2022-12-11 19:52:00,,0818.0,5.00,0.00,27.1,26.1,00.0,35.8,29.0,07.0,0000.0,0007.59,0003.87,0003.38
2022-12-11 19:53:00,,0818.0,4.99,0.00,27.2,26.1,00.0,35.8,29.1,07.0,0000.0,0007.59,0003.89,0003.39
2022-12-11 19:54:00,,0818.0,5.00,0.00,27.2,26.1,00.0,35.8,29.1,06.9,0000.0,0007.95,0003.94,0003.44
2022-12-11 19:55:00,,0818.0,4.99,0.00,27.2,26.1,00.0,35.9,29.1,06.8,0000.0,0008.49,0004.01,0003.49
2022-12-11 19:56:00,,0817.9,5.00,0.00,27.2,26.2,00.0,35.9,29.1,06.8,0000.0,0008.39,0004.14,0003.61
2022-12-11 19:57:00,,0817.9,5.00,0.00,27.2,26.2,00.0,35.9,29.1,06.8,0000.0,0008.41,0004.27,0003.75
2022-12-11 19:58:00,,0817.9,5.01,0.00,27.2,26.2,00.0,35.9,29.1,06.8,0000.0,0008.71,0004.41,0003.87
2022-12-11 19:59:00,,0817.9,4.98,0.00,27.3,26.2,00.0,35.9,29.1,06.7,0000.0,0009.15,0004.59,0003.99
